User: anonymous   Login
Location: ??????
(38.0677°N, 22.9870°E)
Time: 22:39:48
(UTC+00:00)
Language:

Cosmos 1850 Rocket - Orbit

View from above orbital plane
View from above orbital plane
View from above satellite
View from above satellite

Ground track
Ground track

The orbit data is extracted from the following two-line orbital elements,

1 18096U 87049B   24203.92621499  .00000793  00000-0  27417-3 0  9998
2 18096  74.0418 144.6360 0020655  36.9817 323.2756 14.37298981943866
Epoch (UTC): 21 July 2024 22:13:44
Eccentricity: 0.0020655
inclination: 74.0418°
perigee height: 752 km
apogee height: 782 km
right ascension of ascending node: 144.6360°
argument of perigee: 36.9817°
revolutions per day: 14.37298981
mean anomaly at epoch: 323.2756°
orbit number at epoch: 94386

The dashed part of the orbit path shows where the satellite is in the earth's shadow,  

DLR